When you browse on this site, cookies collect data to enhance your experience and personalize the content and advertising you see.
Visit our Privacy Policy to learn more. By continuing to use the site, you agree to this use of cookies and data.
  • Em Portugal
  • Lista de países
  • Para 7 dias
  • Temperatura da água
  • Mapa do tempo
  • Widgets de tempo
  • user-avatar
    Iniciar Sessão

    Previsão horária em Batina

    Hoje, 4 Junho, Quinta-feira

    Tempo Temperatura Precipitação Vento Pressão Humidade
    00:00 +23°C° 0 mm 2 m/s 667 mmHg 51%
    01:00 +21°C° 0 mm 2 m/s 666 mmHg 51%
    02:00 +21°C° 0 mm 2 m/s 666 mmHg 52%
    03:00 +21°C° 0 mm 2 m/s 666 mmHg 52%
    04:00 +21°C° 0 mm 3 m/s 666 mmHg 51%
    05:00 +22°C° 0 mm 3 m/s 666 mmHg 49%
    06:00 +24°C° 0 mm 3 m/s 666 mmHg 47%
    07:00 +25°C° 0 mm 4 m/s 667 mmHg 42%
    08:00 +26°C° 0 mm 5 m/s 667 mmHg 36%
    09:00 +28°C° 0 mm 6 m/s 668 mmHg 31%
    10:00 +28°C° 0 mm 6 m/s 668 mmHg 29%
    11:00 +29°C° 0 mm 6 m/s 668 mmHg 28%
    12:00 +30°C° 0 mm 6 m/s 668 mmHg 26%
    13:00 +30°C° 0 mm 7 m/s 667 mmHg 25%
    14:00 +30°C° 0 mm 7 m/s 667 mmHg 24%
    15:00 +30°C° 0 mm 7 m/s 667 mmHg 23%
    16:00 +29°C° 0 mm 7 m/s 667 mmHg 25%
    17:00 +28°C° 0 mm 7 m/s 666 mmHg 26%
    18:00 +27°C° 0 mm 6 m/s 666 mmHg 27%
    19:00 +26°C° 0 mm 5 m/s 666 mmHg 32%
    20:00 +23°C° 0 mm 4 m/s 666 mmHg 36%
    21:00 +21°C° 0 mm 3 m/s 667 mmHg 40%
    22:00 +21°C° 0 mm 3 m/s 667 mmHg 44%
    23:00 +20°C° 0 mm 2 m/s 667 mmHg 47%

    Amanhã, 5 Junho, Sexta-feira

    Tempo Temperatura Precipitação Vento Pressão Humidade
    00:00 +19°C° 0 mm 2 m/s 667 mmHg 50%
    01:00 +19°C° 0 mm 2 m/s 666 mmHg 52%
    02:00 +18°C° 0 mm 3 m/s 666 mmHg 54%
    03:00 +18°C° 0 mm 3 m/s 666 mmHg 56%
    04:00 +18°C° 0 mm 4 m/s 666 mmHg 54%
    05:00 +17°C° 0 mm 5 m/s 666 mmHg 52%
    06:00 +17°C° 0 mm 5 m/s 666 mmHg 50%
    07:00 +19°C° 0 mm 6 m/s 667 mmHg 46%
    08:00 +20°C° 0 mm 8 m/s 668 mmHg 42%
    09:00 +21°C° 0 mm 9 m/s 668 mmHg 38%
    10:00 +22°C° 0 mm 9 m/s 669 mmHg 36%
    11:00 +23°C° 0 mm 8 m/s 669 mmHg 33%
    12:00 +24°C° 0 mm 8 m/s 670 mmHg 31%
    13:00 +24°C° 0 mm 8 m/s 670 mmHg 31%
    14:00 +26°C° 0 mm 7 m/s 670 mmHg 30%
    15:00 +26°C° 0 mm 7 m/s 670 mmHg 30%
    16:00 +24°C° 0 mm 6 m/s 670 mmHg 31%
    17:00 +23°C° 0 mm 5 m/s 670 mmHg 33%
    18:00 +22°C° 0 mm 5 m/s 670 mmHg 35%
    19:00 +21°C° 0 mm 3 m/s 670 mmHg 40%
    20:00 +20°C° 0 mm 2 m/s 670 mmHg 45%
    21:00 +20°C° 0 mm 1 m/s 670 mmHg 49%
    22:00 +19°C° 0 mm 1 m/s 670 mmHg 51%
    23:00 +19°C° 0 mm 1 m/s 670 mmHg 53%

    Depois de amanhã, 6 Junho, Sábado

    Tempo Temperatura Precipitação Vento Pressão Humidade
    00:00 +18°C° 0 mm 1 m/s 670 mmHg 55%
    01:00 +16°C° 0 mm 0 m/s 670 mmHg 57%
    02:00 +15°C° 0 mm 0 m/s 670 mmHg 60%
    03:00 +15°C° 0 mm 0 m/s 669 mmHg 62%
    04:00 +16°C° 0 mm 0 m/s 670 mmHg 57%
    05:00 +17°C° 0 mm 0 m/s 670 mmHg 52%
    06:00 +18°C° 0 mm 0 m/s 671 mmHg 48%
    07:00 +22°C° 0 mm 1 m/s 671 mmHg 41%
    08:00 +23°C° 0 mm 2 m/s 672 mmHg 35%
    09:00 +25°C° 0 mm 3 m/s 673 mmHg 28%
    10:00 +26°C° 0 mm 4 m/s 673 mmHg 26%
    11:00 +27°C° 0 mm 5 m/s 673 mmHg 24%
    12:00 +28°C° 0 mm 6 m/s 673 mmHg 21%
    13:00 +28°C° 0 mm 6 m/s 672 mmHg 21%
    14:00 +28°C° 0 mm 6 m/s 672 mmHg 21%
    15:00 +28°C° 0 mm 6 m/s 671 mmHg 21%
    16:00 +28°C° 0 mm 5 m/s 671 mmHg 23%
    17:00 +28°C° 0 mm 4 m/s 671 mmHg 26%
    18:00 +27°C° 0 mm 2 m/s 671 mmHg 28%
    19:00 +26°C° 0 mm 2 m/s 671 mmHg 31%
    20:00 +25°C° 0 mm 1 m/s 670 mmHg 34%
    21:00 +24°C° 0 mm 1 m/s 670 mmHg 37%
    22:00 +24°C° 0 mm 1 m/s 670 mmHg 38%
    23:00 +24°C° 0 mm 1 m/s 670 mmHg 38%

    7 Junho, Domingo

    Tempo Temperatura Precipitação Vento Pressão Humidade
    00:00 +23°C° 0 mm 1 m/s 669 mmHg 39%
    01:00 +23°C° 0 mm 2 m/s 669 mmHg 39%
    02:00 +23°C° 0 mm 2 m/s 669 mmHg 39%
    03:00 +23°C° 0 mm 2 m/s 669 mmHg 40%
    04:00 +24°C° 0 mm 2 m/s 669 mmHg 39%
    05:00 +24°C° 0 mm 2 m/s 669 mmHg 39%
    06:00 +24°C° 0 mm 2 m/s 669 mmHg 38%
    07:00 +26°C° 0 mm 3 m/s 670 mmHg 34%
    08:00 +28°C° 0 mm 5 m/s 670 mmHg 29%
    09:00 +29°C° 0 mm 6 m/s 671 mmHg 24%
    10:00 +30°C° 0 mm 7 m/s 671 mmHg 23%
    11:00 +32°C° 0 mm 7 m/s 671 mmHg 22%
    12:00 +32°C° 0 mm 7 m/s 671 mmHg 22%
    13:00 +33°C° 0 mm 7 m/s 670 mmHg 22%
    14:00 +33°C° 0 mm 7 m/s 670 mmHg 22%
    15:00 +33°C° 0 mm 7 m/s 670 mmHg 22%
    16:00 +30°C° 0 mm 6 m/s 669 mmHg 28%
    17:00 +28°C° 0 mm 5 m/s 669 mmHg 34%
    18:00 +26°C° 0 mm 5 m/s 669 mmHg 40%
    19:00 +23°C° 0 mm 5 m/s 669 mmHg 45%
    20:00 +22°C° 0 mm 4 m/s 669 mmHg 49%
    21:00 +21°C° 0 mm 4 m/s 669 mmHg 54%
    22:00 +20°C° 0 mm 4 m/s 669 mmHg 54%
    23:00 +20°C° 0 mm 4 m/s 669 mmHg 54%

    8 Junho, Segunda-feira

    Tempo Temperatura Precipitação Vento Pressão Humidade
    00:00 +19°C° 0 mm 4 m/s 669 mmHg 54%
    01:00 +19°C° 0 mm 3 m/s 668 mmHg 56%
    02:00 +19°C° 0 mm 3 m/s 668 mmHg 58%
    03:00 +18°C° 0 mm 3 m/s 667 mmHg 60%
    04:00 +19°C° 0 mm 3 m/s 668 mmHg 57%
    05:00 +20°C° 0 mm 2 m/s 668 mmHg 53%
    06:00 +20°C° 0 mm 2 m/s 669 mmHg 49%
    07:00 +23°C° 0 mm 2 m/s 669 mmHg 45%
    08:00 +24°C° 0 mm 2 m/s 669 mmHg 41%
    09:00 +25°C° 0 mm 2 m/s 670 mmHg 38%
    10:00 +26°C° 0.1 mm 2 m/s 670 mmHg 35%
    11:00 +27°C° 0.1 mm 3 m/s 670 mmHg 32%
    12:00 +28°C° 0.1 mm 3 m/s 670 mmHg 29%
    13:00 +28°C° 0.1 mm 3 m/s 670 mmHg 29%
    14:00 +28°C° 0.1 mm 3 m/s 670 mmHg 29%
    15:00 +29°C° 0.1 mm 3 m/s 670 mmHg 29%
    16:00 +28°C° 0.1 mm 3 m/s 670 mmHg 34%
    17:00 +26°C° 0.1 mm 4 m/s 669 mmHg 38%
    18:00 +25°C° 0.1 mm 5 m/s 669 mmHg 42%
    19:00 +22°C° 0 mm 4 m/s 670 mmHg 52%
    20:00 +20°C° 0 mm 4 m/s 670 mmHg 61%
    21:00 +19°C° 0 mm 4 m/s 670 mmHg 70%
    22:00 +18°C° 0 mm 4 m/s 670 mmHg 72%
    23:00 +18°C° 0 mm 3 m/s 670 mmHg 73%

    9 Junho, Terça-feira

    Tempo Temperatura Precipitação Vento Pressão Humidade
    00:00 +18°C° 0 mm 3 m/s 670 mmHg 74%
    01:00 +17°C° 0 mm 2 m/s 670 mmHg 73%
    02:00 +17°C° 0 mm 2 m/s 670 mmHg 73%
    03:00 +17°C° 0 mm 2 m/s 670 mmHg 72%
    04:00 +18°C° 0 mm 2 m/s 670 mmHg 69%
    05:00 +18°C° 0 mm 2 m/s 670 mmHg 66%
    06:00 +19°C° 0 mm 2 m/s 671 mmHg 63%
    07:00 +20°C° 0 mm 2 m/s 671 mmHg 55%
    08:00 +22°C° 0 mm 3 m/s 672 mmHg 48%
    09:00 +24°C° 0 mm 3 m/s 672 mmHg 41%
    10:00 +26°C° 0 mm 3 m/s 672 mmHg 37%
    11:00 +27°C° 0 mm 4 m/s 672 mmHg 33%
    12:00 +28°C° 0 mm 4 m/s 672 mmHg 29%
    13:00 +28°C° 0 mm 4 m/s 672 mmHg 28%
    14:00 +28°C° 0 mm 5 m/s 672 mmHg 27%
    15:00 +29°C° 0 mm 5 m/s 672 mmHg 27%
    16:00 +28°C° 0 mm 4 m/s 672 mmHg 28%
    17:00 +28°C° 0 mm 4 m/s 672 mmHg 30%
    18:00 +27°C° 0 mm 3 m/s 672 mmHg 32%
    19:00 +25°C° 0.2 mm 3 m/s 672 mmHg 42%
    20:00 +23°C° 0.2 mm 2 m/s 672 mmHg 52%
    21:00 +21°C° 0.2 mm 2 m/s 672 mmHg 62%
    22:00 +20°C° 0.1 mm 2 m/s 672 mmHg 64%
    23:00 +20°C° 0.1 mm 2 m/s 672 mmHg 66%
    Mostrar mais